www.pogodaiklimat.ru

Погода и климат >> Архив погоды >> Россия >> Якутия >> Чумпурук


АРХИВ ПОГОДЫ в Чумпуруке

Время (UTC), дата Ветер
(напр.,м/с)
 
Видим.   Явления Облачность Т
(С)
Тd
(С)
f
(%)
Тe
(С)
Тes
(С)
Комфортность P
(гПа)
Po
(гПа)
Тmin
(С)
Tmax
(С)
R
(мм)
R24
(мм)
S
(см)
06 13.06 СЗ 2 50 км 1/1 1000 м
[Cu hum]
+14.1 -1.7 34 +14 +24 1013.6 997.1
12 13.06 ЮВ 1 50 км 3/1 1000 м
[Sc diur, vesp Ci fib]
+15.6 -0.5 33 +16 +17 1013.0 996.6 +16.2
18 13.06 Ю 1 50 км 6/0
[Ci fib]
+2.7 +1.7 93 +1 +1 1015.1 997.7
00 14.06 Ю 1 50 км ясно +14.2 +2.8 46 +15 +22 1014.3 997.7 +1.7
06 14.06 Ю 2 50 км 1/0
[Ci sp]
+20.6 +1.4 28 +21 +33 комфорт 1010.5 994.3
12 14.06 Ю 1 50 км 1/0
[Ci fib]
+20.3 +3.2 32 +22 +23 комфорт 1008.0 991.9 +21.9
18 14.06 штиль 0 50 км ясно +5.8 +5.1 95 +5 +5 1008.1 991.2
00 15.06 ЮВ 1 50 км ясно +19.3 +6.0 42 +21 +29 комфорт 1006.6 990.5 +5.1
06 15.06 Ю 3 50 км ясно +25.8 +7.4 31 +26 +35 жарко 1004.4 988.6
12 15.06 ЮВ 1 50 км 8/0
[Cs]
+23.6 +6.9 34 +24 +25 комфорт 1004.1 988.2 +27.6
18 15.06 ЮВ 1 50 км 10/0
[Ac lent Cs]
+9.6 +7.7 88 +9 +9 1006.1 989.4
00 16.06 ЮВ 1 50 км 9/0
[Cc]
+21.0 +8.7 45 +24 +30 комфорт 1006.7 990.7 +9.4
06 16.06 ЮВ 2 50 км 8/0
[Cs]
+28.7 +8.8 29 +28 +38 жарко 1006.5 990.9
12 16.06 Ю 1 50 км 3/0
[Ci fib]
+26.2 +9.1 34 +27 +27 жарко 1007.9 992.1 +29.0
18 16.06 СЗ 2 50 км 3/0
[Ac lent Ci fib]
+12.0 +9.6 85 +11 +11 1011.3 994.6
00 17.06 Ю 1 50 км ясно +21.9 +11.5 52 +24 +32 комфорт 1011.5 995.4 +10.5
06 17.06 ЮВ 2 50 км 8/0
[Ci fib]
+29.8 +8.8 27 +29 +39 жарко 1009.7 994.0
12 17.06 ЮВ 1 50 км 3/0
[Ci fib]
+28.6 +10.0 31 +29 +30 жарко 1008.0 992.4 +31.3
18 17.06 штиль 0 50 км 1/0
[Ci fib]
+11.5 +10.3 92 +11 +11 1009.7 993.0
00 18.06 Ю 1 50 км 1/0
[Ci fib]
+25.0 +10.7 41 +26 +34 жарко 1008.1 992.3 +10.5
06 18.06 Ю 2 50 км 3/0
[Ci fib]
+29.9 +8.1 26 +29 +40 жарко 1005.2 989.6
12 18.06 Ю 1 50 км 8/0
[Ci fib]
+27.9 +10.9 35 +29 +29 жарко 1003.7 988.0 +31.3
18 18.06 СЗ 1 50 км 8/8 600 м
[Sc Ci fib]
+20.5 +16.0 75 +25 +25 комфорт 1006.6 990.6
00 19.06 СЗ 2 50 км 9/3 1000 м
[Sc Ac trans Cc]
+20.0 +16.0 78 +23 +26 комфорт 1008.8 992.7 +17.5
06 19.06 С 2 50 км 9/6 1000 м
[Sc Ac trans Cs]
+24.2 +13.6 52 +26 +29 жарко 1009.8 993.9
12 19.06 С 1 50 км 10/0
[Ac cast Cs]
+23.5 +10.8 45 +25 +25 комфорт 1010.2 994.2 +25.0
18 19.06 СЗ 1 50 км 9/6 1000 м
[Sc Ac cuf Cs]
+15.8 +10.1 69 +17 +17 1012.2 995.8
00 20.06 СЗ 2 50 км 9/1 1000 м
[Sc Ac cast Ci fib]
+17.4 +10.5 64 +18 +21 1012.6 996.3 +15.0

 

Местоположение метеостанции Чумпурук (Якутия, Россия): широта 64.23 долгота 116.90 высота над уровнем моря 139 м.

В архиве по умолчанию представлена погода в Чумпуруке за последнюю неделю. Архивные данные за месяц целиком и за предыдущие месяцы, начиная с января 2011 года, Вы можете получить, выбрав интересующий диапазон дат из раскрывающегося списка и нажав кнопку "Ввод!".


*Определитесь, кто Вы:
робот инопланетянин человек

Внимание! Время в таблицах - всемирное. Для получения местного времени необходимо прибавить поправку, которая равна 9 ч.

Смотрите также архив погоды в соседних городах и на ближайших метеорологических станциях:

Погода в Нюрбе (Якутия, Россия) (126 км)
Погода в Верхневилюйске (Якутия, Россия) (184 км)
Погода в Эйке (Якутия, Россия) (202 км)
Погода в Хабардино (Якутия, Россия) (215 км)
Погода в Крестяхе (Якутия, Россия) (222 км)
Погода в Сунтаре (Якутия, Россия) (232 км)
Погода в Вилюйске (Якутия, Россия) (235 км)
Погода в Мирном (Якутия, Россия) (244 км)
Погода в Шелагонцах (Якутия, Россия) (257 км)
Погода в Чернышевском (Якутия, Россия) (259 км)

Пояснения к столбцам:

Ветер - указаны скорость ветра в м/с - средняя за 10 мин, порывы в срок и между сроками (в фигурных скобках) и направление, откуда дует ветер: С - северный, СВ - северо-восточный, В - восточный, ЮВ - юго-восточный, Ю - южный, ЮЗ - юго-западный, З - западный, СЗ - северо-западный.
Видимость - горизонтальная дальность видимости в метрах или километрах. При видимости от 1 до 10 км при отсутствии осадков обычно наблюдается дымка, при ухудшении видимости до 1 км и менее - туман. В сухую погоду видимость может ухудшаться дымом, пылью или мглою.
Явления - указаны атмосферные явления, наблюдавшиеся в срок или в последний час перед сроком; фигурными скобками обозначены явления, наблюдавшиеся между сроками (за 1-3 часа до срока); квадратными скобками обозначены град или гололедные отложения с указанием их диаметра в мм.
Облачность - указаны через наклонную черту общая и нижняя облачность в баллах и высота нижней границы облаков в метрах; квадратными скобками обозначены формы облаков: Ci - перистые, Cs - перисто-слоистые, Cc - перисто-кучевые, Ac - высококучевые, As - высокослоистые, Sc - слоисто-кучевые, Ns - слоисто-дождевые, Cu - кучевые, Cb - кучево-дождевые. Подробнее классификацию облаков см. в Атласе облаков (PDF).
T - Температура воздуха - температура, измеренная на высоте 2 м над землей.
Td - Температура точки росы - температура, при понижении до которой содержащийся в воздухе водяной пар достигнет насыщения.
f - Относительная влажность воздуха - влажноcть воздуха, измеренная на высоте 2 м над землей.
Te - Эффективная температура - температура, которую ощущает одетый по сезону человек в тени. Характеристика душности погоды. При расчете учитывается влияние влажности воздуха и скорости ветра на теплоощущения человека.
Tes - Эффективная температура на солнце - температура, которую ощущает человек, с поправкой на солнечный нагрев. Характеристика знойности погоды. Зависит от высоты солнца над горизонтом, облачности и скорости ветра. Ночью, в пасмурную погоду, а также при ветре 12 м/с и более поправка равна нулю.
P - Атмосферное давление - приведенное к уровню моря атмосферное давление.
Po - Атмосферное давление - измеренное на уровне метеостанции атмосферное давление.
Tmin - Минимальная температура - минимум температуры воздуха на высоте 2 м над землей.
Tmax - Максимальная температура - максимум температуры воздуха на высоте 2 м над землей.
R - Количество осадков - Количество выпавших осадков за период времени, мм. При наведении курсора мыши на число - период времени, за который выпало указанное количество осадков.
R24 - Количество осадков - Количество выпавших осадков за 24 часа, мм.
S - Снежный покров - Высота снежного покрова, см. При наведении курсора мыши на число - состояние снежного покрова и степень покрытия местности в баллах.